Skip Page Navigation
NASA JPL Caltech
NASA Logo - Jet Propulsion Laboratory + View the NASA Portal
+ Center for Near-Earth Object Studies
JPL Home Earth Solar System Stars & Galaxies Technology
JPL Solar System Dynamics
BODIES ORBITS EPHEMERIDES TOOLS PHYSICAL DATA DISCOVERY FAQ SITE MAP
JPL Small-Body Database Browser
Search: [ help ]  
382478 (2000 XB37)
Classification: Main-belt Asteroid          SPK-ID: 2382478
Ephemeris | Orbit Diagram | Orbital Elements | Mission Design | Physical Parameters | Discovery Circumstances | Close-Approach Data ]

[ show orbit diagram ]
Orbital Elements at Epoch 2459000.5 (2020-May-31.0) TDB
Reference: JPL 11 (heliocentric ecliptic J2000)
 Element Value Uncertainty (1-sigma)   Units 
e .2796885015809968 8.1124e-08  
a 2.618681616900964 2.3131e-08 au
q 1.886266479352232 2.0605e-07 au
i 11.34505032768724 1.5293e-05 deg
node 319.0775738146075 4.2261e-05 deg
peri 93.05186162042256 5.329e-05 deg
M 223.9864635210286 2.6268e-05 deg
tp 2459585.292922837475
(2022-Jan-05.79292284)
0.00011642 TDB
period 1547.827206551899
4.24
2.0508e-05
5.615e-08
d
yr
n .2325841014269116 3.0816e-09 deg/d
Q 3.351096754449697 2.96e-08 au
  Orbit Determination Parameters
   # obs. used (total)      171  
   data-arc span      6326 days (17.32 yr)  
   first obs. used      2000-09-25  
   last obs. used      2018-01-20  
   planetary ephem.      DE431  
   SB-pert. ephem.      SB431-N16  
   condition code      0  
   norm. resid. RMS      .59168  
   source      ORB  
   producer      Otto Matic  
   solution date      2018-Feb-06 09:34:00  

Additional Information
 Earth MOID = .937024 au 
 Jupiter MOID = 2.20061 au 
 T_jup = 3.323 
[ show covariance matrix ]

Ephemeris | Orbit Diagram | Orbital Elements | Mission Design | Physical Parameters | Discovery Circumstances | Close-Approach Data ]

Physical Parameter Table
Parameter Symbol Value Units Sigma Reference Notes
absolute magnitude H 16.6   n/a MPO297752  

382478 (2000 XB37)          Discovered 2000-Dec-05 by LINEAR at Socorro
Reference: Last Updated: 2014-01-21

[ show close-approach data ]
Ephemeris | Orbit Diagram | Orbital Elements | Mission Design | Physical Parameters | Discovery Circumstances | Close-Approach Data ]
ABOUT SSD CREDITS/AWARDS PRIVACY/COPYRIGHT GLOSSARY LINKS
FirstGov 2020-Jul-13 18:20 UT
(server date/time)  
NASA Home Page
Site Manager:   Ryan S. Park
Webmaster  Alan B. Chamberlin